Weather History for EGDR - November, 2013

Change the Weather History Date:

Saturday, November 23, 2013

  Actual Average Record
Temperature  
Mean Temperature 40 °F -  
Max Temperature 47 °F 48 °F 55 °F (1997)
Min Temperature 32 °F 41 °F 32 °F (2007)
Degree Days  
Heating Degree Days 26    
Moisture  
Dew Point 33 °F    
Average Humidity 84    
Maximum Humidity 93    
Minimum Humidity 61    
Precipitation  
Precipitation 0.01 in - - ()
Sea Level Pressure  
Sea Level Pressure 30.29 in    
Wind  
Wind Speed 8 mph ()    
Max Wind Speed 12 mph    
Max Gust Speed -    
Visibility 7.8 miles    
Events      
Averages and records for this station are not official NWS values.
T = Trace of Precipitation, MM = Missing Value Source: Averaged Metar Reports

Daily Weather History Graph

Daily Weather History Graph

Search for Another Location

Airport or City:

Trip Planner

Search our weather history database for the weather conditions in past years. The results will help you decide how hot, cold, wet, or windy it might be!

Date:

Astronomy

Nov. 23, 2013 Rise Set
Actual Time 7:46 AM GMT 4:27 PM GMT
Civil Twilight 7:10 AM GMT 5:04 PM GMT
Nautical Twilight 6:30 AM GMT 5:44 PM GMT
Astronomical Twilight 5:51 AM GMT 6:23 PM GMT
Moon 9:55 PM GMT (11/23) 11:45 AM GMT (11/23)
Length of Visible Light 9h 54m
Length of Day
8h 40m
Waning Gibbous, 71% of the Moon is Illuminated
Nov 23
Waning Gibbous
Nov 25
Last Quarter
Dec 3
New
Dec 9
First Quarter
Dec 17
Full

Hourly Weather History & Observations

Time (GMT) Temp. Windchill Dew Point Humidity Pressure Visibility Wind Dir Wind Speed Gust Speed Precip Events Conditions
12:00 AM 35 °F - 31 °F 80% 30.24 in 11 mi NE 11.5 mph - -   Haze
12:50 AM 35.6 °F 28.0 °F 30.2 °F 81% 30.21 in 6.2 mi NE 10.4 mph - N/A   Partly Cloudy
1:50 AM 35.6 °F 27.5 °F 32.0 °F 87% 30.21 in 6.2 mi NE 11.5 mph - N/A   Partly Cloudy
2:50 AM 35.6 °F 28.0 °F 32.0 °F 87% 30.24 in 6.2 mi NE 10.4 mph - N/A   Partly Cloudy
3:00 AM 35 °F - 31 °F 82% 30.25 in 12 mi NE 10.4 mph - -   Scattered Clouds
3:50 AM 35.6 °F 29.2 °F 32.0 °F 87% 30.24 in 6.2 mi NE 8.1 mph - N/A   Partly Cloudy
4:50 AM 33.8 °F 27.0 °F 30.2 °F 87% 30.24 in 6.2 mi ENE 8.1 mph - N/A   Partly Cloudy
5:50 AM 33.8 °F 26.4 °F 30.2 °F 87% 30.24 in - ENE 9.2 mph - N/A   Clear
6:00 AM 33 °F - 30 °F 82% 30.28 in 12 mi ENE 9.2 mph - -  
6:50 AM 32.0 °F 25.6 °F 30.2 °F 93% 30.27 in 6.2 mi ENE 6.9 mph - N/A   Partly Cloudy
7:50 AM 33.8 °F 27.0 °F 32.0 °F 93% 30.27 in 6.2 mi East 8.1 mph - N/A   Partly Cloudy
8:50 AM 35.6 °F 29.9 °F 32.0 °F 87% 30.30 in 6.2 mi ENE 6.9 mph - N/A   Partly Cloudy
9:00 AM 35 °F - 32 °F 84% 30.32 in 12 mi ENE 6.9 mph - -   Scattered Clouds
9:50 AM 41.0 °F 38.0 °F 35.6 °F 81% 30.30 in 6.2 mi ENE 4.6 mph - N/A   Partly Cloudy
10:50 AM 44.6 °F 40.2 °F 35.6 °F 71% 30.30 in 6.2 mi ENE 8.1 mph - N/A   Partly Cloudy
11:50 AM 46.4 °F 42.9 °F 37.4 °F 71% 30.30 in 6.2 mi East 6.9 mph - N/A   Partly Cloudy
12:00 PM 46 °F - 37 °F 61% 30.32 in 17 mi East 6.9 mph - -   Scattered Clouds
12:50 PM 46.4 °F 42.4 °F 37.4 °F 71% 30.30 in 6.2 mi ENE 8.1 mph - N/A   Partly Cloudy
1:50 PM 48.2 °F - 39.2 °F 71% 30.27 in 6.2 mi NE 6.9 mph - N/A   Mostly Cloudy
2:50 PM 46.4 °F 42.9 °F 39.2 °F 76% 30.30 in 6.2 mi NNE 6.9 mph - N/A   Scattered Clouds
3:00 PM 46 °F - 38 °F 67% 30.31 in 12 mi NNE 6.9 mph - -   Partly Cloudy
3:50 PM 41.0 °F 37.1 °F 37.4 °F 87% 30.30 in 6.2 mi NE 5.8 mph - N/A   Partly Cloudy
4:50 PM 37.4 °F 32.1 °F 33.8 °F 87% 30.30 in 6.2 mi NE 6.9 mph - N/A   Haze
5:50 PM 35.6 °F 28.0 °F 33.8 °F 93% 30.30 in 6.2 mi NE 10.4 mph - N/A   Partly Cloudy
6:00 PM 35 °F - 33 °F 89% 30.34 in 12 mi NE 10.4 mph - -   Scattered Clouds
6:50 PM 35.6 °F 28.6 °F 33.8 °F 93% 30.33 in 6.2 mi NE 9.2 mph - N/A   Partly Cloudy
7:50 PM 33.8 °F 25.3 °F 32.0 °F 93% 30.33 in 6.2 mi ENE 11.5 mph - N/A   Partly Cloudy
8:50 PM 35.6 °F 28.0 °F 33.8 °F 93% 30.33 in 6.2 mi ENE 10.4 mph - N/A   Partly Cloudy
9:00 PM 35 °F - 33 °F 90% 30.37 in 12 mi ENE 10.4 mph - -   Scattered Clouds
9:50 PM 33.8 °F 27.7 °F 30.2 °F 87% 30.36 in 6.2 mi ENE 6.9 mph - N/A   Partly Cloudy
10:50 PM 35.6 °F 28.0 °F 32.0 °F 87% 30.36 in 6.2 mi ENE 10.4 mph - N/A   Partly Cloudy
11:50 PM 33.8 °F 27.7 °F 30.2 °F 87% 30.36 in 6.2 mi NE 6.9 mph - N/A   Partly Cloudy